Regional Weather Roundup
Issued by NWS Huntsville, AL

Home | Current Version | Previous Version | Text Only | Print | Product List | Glossary On
Versions: 1 2 3 4 5 6 7 8 9 10 11 12 13 14 15 16 17 18 19 20 21 22 23 24 25 26 27
000
ASUS44 KHUN 232210
RWRHUN

WEATHER ROUNDUP FOR THE TENNESSEE VALLEY
NATIONAL WEATHER SERVICE HUNTSVILLE AL
500 PM CDT WED AUG 23 2017

ALZ001>004-232300-
NORTHWEST ALABAMA

CITY           SKY/WX    TMP DP  RH WIND       PRES   REMARKS
SHOALS AIRPORT PTSUNNY   83  64  52 N8        29.95F
$$

ALZ005>007-016-232300-
NORTH CENTRAL ALABAMA

CITY           SKY/WX    TMP DP  RH WIND       PRES   REMARKS
DECATUR AP     MOSUNNY   83  66  56 N12       29.94F
HUNTSVILLE AP  MOSUNNY   86  66  51 N10       29.93F
MERIDIANVILLE  MOSUNNY   82  59  44 N12       29.95F
REDSTONE ARSN  MOSUNNY   84  63  49 NE9       29.92F
VINEMONT AP    FAIR      82  64  55 N5        29.97F
$$

ALZ008>010-232300-
NORTHEAST ALABAMA

CITY           SKY/WX    TMP DP  RH WIND       PRES   REMARKS
ALBERTVILLE    MOSUNNY   82  72  69 N7        29.94S
FORT PAYNE     MOSUNNY   84  61  45 N3        29.92F
SCOTTSBORO HCN   N/A     84 N/A N/A MISG        N/A
$$

TNZ076-096-097-232300-
SOUTHEASTERN MIDDLE TENNESSEE

CITY           SKY/WX    TMP DP  RH WIND       PRES   REMARKS
TULLAHOMA      MOSUNNY   79  57  47 NW8       29.98S
$$

...SURROUNDING SITES...

CITY           SKY/WX    TMP DP  RH WIND       PRES   REMARKS
ATLANTA        MOSUNNY   87  66  49 NW8       29.90F
ANNISTON       MOSUNNY   89  67  47 N9        29.91S HX  92
BIRMINGHAM     PTSUNNY   86  67  52 N13       29.95S
CHATTANOOGA    MOSUNNY   86  59  39 N10       29.91F
DALTON         NOT AVBL
GADSDEN        PTSUNNY   88  68  51 NW10      29.92S HX  91
GOLDEN TRNGL   PTSUNNY   90  70  51 N9        29.88F HX  95
HALEYVILLE     FAIR      84  68  58 VRB7      29.97F
JACKSON TN     PTSUNNY   81  60  48 N7        29.99F
MEMPHIS        CLOUDY    81  65  58 NE10      29.98S
NASHVILLE      CLOUDY    81  57  43 N13G20    29.98F
OXFORD MS      FAIR      82  68  61 N8        29.97F
ROME           MOSUNNY   90  66  45 NW6       29.89F HX  92
SAVANNAH       SUNNY     79  64  61 N12       29.96S
SELMER         SUNNY     79  64  61 N7        29.97F
TUPELO         MOSUNNY   84  65  52 NW9       29.94F
TUSCALOOSA     SUNNY     88  71  57 N12       29.90F HX  94
$$

...GULF COAST WEATHER...

CITY           SKY/WX    TMP DP  RH WIND       PRES   REMARKS
GULFPORT       MOSUNNY   89  76  65 S5        29.87S HX 100
PASCAGOULA     SUNNY     90  75  61 S6        29.87F HX 100
MOBILE         MOSUNNY   90  74  59 NW5       29.88F THUNDER HX  99
GULF SHORES    CLEAR     87  76  69 SE10      29.87S HX  97
PENSACOLA      PTSUNNY   89  72  56 S10       29.87S HX  96
DESTIN         MOSUNNY   91  72  53 SW6       29.87R HX  98
PANAMA CITY    SUNNY     90  71  54 SW10      29.86F HX  96
APPALACHICOLA  SUNNY     88  77  69 SW8       29.86F HX 100
$$





USA.gov is the U.S. government's official web portal to all federal, state and local government web resources and services.